FW8256 Weather Reports


Display with metric or nautical units.
time (UTC)temp
F
wind
direction
speed
MPH
gust
MPH
rain 1hr
in
rain 24hr
in
rain mn
in
humidity
%
barometer
mb
20260509230100 85 146 4.0 12.0 0.00 0.01 0.00 38 1006.0
20260509224559 85 119 4.0 10.0 0.00 0.12 0.00 39 1006.0
20260509223057 85 176 3.0 9.0 0.00 0.12 0.00 38 1006.4
20260509221555 86 99 3.0 8.0 0.00 0.12 0.00 37 1006.6
20260509220056 86 164 2.0 10.0 0.00 0.12 0.00 38 1006.7
20260509214554 86 154 3.0 7.0 0.00 0.12 0.00 37 1006.6
20260509213052 86 185 1.0 7.0 0.00 0.12 0.00 37 1006.8
20260509211550 86 170 2.0 8.0 0.00 0.12 0.00 36 1006.9
20260509210053 86 126 4.0 9.0 0.00 0.12 0.00 33 1007.2
20260509204552 86 148 2.0 6.0 0.00 0.12 0.00 34 1007.2
20260509203044 86 141 2.0 8.0 0.00 0.12 0.00 35 1007.5
20260509201542 85 269 2.0 7.0 0.00 0.12 0.00 37 1007.6
20260509200044 85 180 1.0 4.0 0.00 0.12 0.00 34 1007.8
20260509194538 85 167 2.0 5.0 0.00 0.12 0.00 33 1008.1
20260509193037 85 204 3.0 7.0 0.00 0.12 0.00 37 1008.3
20260509191533 84 166 1.0 5.0 0.00 0.12 0.00 36 1008.4
20260509190031 83 104 1.0 6.0 0.00 0.12 0.00 39 1008.5
20260509184537 83 140 2.0 7.0 0.00 0.12 0.00 40 1008.8
20260509183026 83 119 1.0 6.0 0.00 0.12 0.00 42 1008.9
20260509181523 82 186 2.0 6.0 0.00 0.12 0.00 45 1009.0
20260509180023 82 205 3.0 7.0 0.00 0.12 0.00 47 1009.3
20260509174520 81 170 1.0 7.0 0.00 0.12 0.00 47 1009.4
20260509173019 81 175 3.0 8.0 0.00 0.12 0.00 51 1009.8
20260509171517 80 157 1.0 7.0 0.00 0.12 0.00 51 1010.0
20260509170016 80 277 2.0 5.0 0.00 0.12 0.00 51 1010.2
20260509164513 79 229 2.0 5.0 0.00 0.12 0.00 48 1010.3
20260509163010 79 137 2.0 4.0 0.00 0.12 0.00 50 1010.2
20260509161507 77 146 2.0 7.0 0.00 0.12 0.00 55 1010.4
20260509160005 77 156 2.0 7.0 0.00 0.12 0.00 56 1010.4
20260509154504 77 163 2.0 6.0 0.00 0.12 0.00 54 1010.2
20260509153105 75 169 2.0 7.0 0.00 0.12 0.00 54 1010.1
20260509151558 73 109 2.0 6.0 0.00 0.12 0.00 68 1010.2
20260509150055 72 137 2.0 3.0 0.00 0.12 0.00 73 1010.2
20260509144549 71 137 1.0 4.0 0.00 0.12 0.00 76 1010.1
20260509143051 70 138 1.0 3.0 0.00 0.12 0.00 80 1009.8
20260509141551 68 140 0.0 3.0 0.00 0.12 0.00 86 1010.1
20260509140047 65 169 1.0 4.0 0.00 0.12 0.00 93 1010.1
20260509134533 63 169 0.0 0.0 0.00 0.12 0.00 96 1010.1
20260509133029 61 169 0.0 0.0 0.00 0.12 0.00 96 1009.9
20260509131535 60 169 0.0 0.0 0.00 0.12 0.00 96 1009.8
20260509130031 58 169 0.0 0.0 0.00 0.12 0.00 96 1009.5
20260509124534 57 17 0.0 0.0 0.00 0.12 0.00 96 1009.5
20260509123040 55 17 0.0 0.0 0.00 0.12 0.00 96 1009.3
20260509121526 54 17 0.0 0.0 0.00 0.12 0.00 95 1009.3
20260509120025 53 19 0.0 0.0 0.00 0.12 0.00 93 1009.2
20260509114525 53 24 0.0 0.0 0.00 0.12 0.00 93 1009.1
20260509113021 54 19 0.0 0.0 0.00 0.12 0.00 93 1008.9
20260509111536 54 21 0.0 0.0 0.00 0.12 0.00 93 1008.6
20260509110019 55 19 0.0 0.0 0.00 0.12 0.00 93 1008.5
20260509104526 55 22 0.0 0.0 0.00 0.12 0.00 93 1008.5
20260509103015 56 22 0.0 0.0 0.00 0.12 0.00 93 1008.7
20260509101516 56 22 0.0 0.0 0.00 0.12 0.00 93 1008.7
20260509100017 56 22 0.0 0.0 0.00 0.12 0.00 93 1009.1
20260509094511 56 22 0.0 0.0 0.00 0.12 0.00 93 1009.3
20260509093012 56 21 0.0 0.0 0.00 0.12 0.00 92 1009.3
20260509091509 56 20 0.0 0.0 0.00 0.12 0.00 92 1009.3
20260509090008 56 19 0.0 0.0 0.00 0.12 0.00 92 1009.1
20260509084508 56 21 0.0 0.0 0.00 0.12 0.00 92 1009.3
20260509083006 57 20 0.0 0.0 0.00 0.12 0.00 92 1009.2
20260509081507 57 19 0.0 0.0 0.00 0.12 0.00 92 1009.2
20260509080004 57 20 0.0 0.0 0.00 0.12 0.00 91 1009.3
20260509074603 58 22 0.0 0.0 0.00 0.12 0.00 91 1009.4
20260509073106 58 19 0.0 0.0 0.00 0.12 0.00 91 1009.6
20260509071557 58 17 0.0 0.0 0.00 0.12 0.00 91 1009.7
20260509070057 59 18 0.0 1.0 0.00 0.12 0.00 92 1009.8
20260509064555 59 15 0.0 0.0 0.00 0.12 0.00 92 1009.6
20260509063059 59 169 0.0 0.0 0.00 0.12 0.00 91 1009.6
20260509061606 60 169 0.0 0.0 0.00 0.12 0.00 91 1009.9
20260509060050 60 169 0.0 0.0 0.00 0.12 0.00 91 1009.7
20260509054557 60 169 0.0 0.0 0.00 0.12 0.00 91 1009.7
20260509053058 60 169 0.0 0.0 0.00 0.12 0.00 90 1009.7
20260509051550 61 169 0.0 1.0 0.00 0.12 0.00 90 1009.7
20260509050044 61 169 0.0 1.0 0.00 0.12 0.00 90 1009.6
20260509044548 61 169 0.0 2.0 0.00 0.12 0.12 90 1009.8
20260509043042 61 169 0.0 4.0 0.00 0.12 0.12 89 1009.7
20260509041541 62 173 0.0 3.0 0.00 0.12 0.12 88 1009.3
20260509040042 62 173 1.0 3.0 0.00 0.12 0.12 88 1009.1
20260509034542 62 173 0.0 0.0 0.00 0.12 0.12 87 1008.9
20260509033039 63 173 0.0 1.0 0.00 0.12 0.12 86 1008.7
20260509031539 64 173 0.0 3.0 0.00 0.12 0.12 84 1008.3
20260509030039 64 173 0.0 1.0 0.00 0.12 0.12 84 1007.9
20260509024537 64 360 0.0 1.0 0.00 0.12 0.12 84 1007.6
20260509023039 65 360 0.0 2.0 0.00 0.12 0.12 84 1007.2
20260509021537 65 360 0.0 5.0 0.00 0.12 0.12 84 1007.2
20260509020039 65 360 0.0 0.0 0.00 0.12 0.12 84 1007.0
20260509014536 66 360 0.0 2.0 0.01 0.12 0.12 82 1006.7
20260509013036 66 165 0.0 2.0 0.01 0.12 0.12 81 1006.2
20260509011535 67 360 0.0 5.0 0.01 0.12 0.12 81 1006.2
20260509010034 69 360 2.0 5.0 0.01 0.12 0.12 78 1006.3
20260509004538 72 170 1.0 4.0 0.00 0.11 0.11 76 1006.0
20260509003038 71 170 0.0 3.0 0.00 0.11 0.11 78 1005.4
20260509001533 70 170 1.0 5.0 0.00 0.11 0.11 78 1004.9
20260509000032 69 171 2.0 10.0 0.00 0.11 0.11 81 1004.7
20260508234533 70 169 2.0 6.0 0.00 0.11 0.11 83 1004.6
20260508233032 68 338 0.0 2.0 0.11 0.11 0.11 86 1004.3
20260508231531 66 351 1.0 3.0 0.11 0.11 0.11 88 1004.7